Weather History for Wright-Patt AFB, OH

Change the Weather History Date:

Saturday, November 24, 2012

  Actual Average Record
Temperature  
Mean Temperature 30 °F -  
Max Temperature 32 °F 47 °F 64 °F (2001)
Min Temperature 27 °F 31 °F 14 °F (2005)
Degree Days  
Heating Degree Days 35    
Moisture  
Dew Point 21 °F    
Average Humidity 67    
Maximum Humidity 71    
Minimum Humidity 62    
Precipitation  
Precipitation 0.00 in - - ()
Sea Level Pressure  
Sea Level Pressure 30.19 in    
Wind  
Wind Speed 10 mph (West)    
Max Wind Speed 13 mph    
Max Gust Speed -    
Visibility 10 miles    
Events Snow    
Averages and records for this station are not official NWS values.
T = Trace of Precipitation, MM = Missing Value Source: NWS Daily Summary

Daily Weather History Graph

Daily Weather History Graph

Search for Another Location

Airport:

Trip Planner

Search our weather history database for the weather conditions in past years. The results will help you decide how hot, cold, wet, or windy it might be!

Date:

Astronomy

Nov. 24, 2012 Rise Set
Actual Time 7:31 AM EST 5:14 PM EST
Civil Twilight 7:01 AM EST 5:43 PM EST
Nautical Twilight 6:28 AM EST 6:17 PM EST
Astronomical Twilight 5:56 AM EST 6:49 PM EST
Moon 2:58 PM EST (11/24) 3:47 AM EST (11/24)
Length of Visible Light 10h 41m
Length of Day
9h 42m
Waxing Gibbous, 87% of the Moon is Illuminated
Nov 24
Waxing Gibbous
Nov 28
Full
Dec 6
Last Quarter
Dec 13
New
Dec 20
First Quarter

Hourly Weather History & Observations

Time (EST) Temp. Windchill Dew Point Humidity Pressure Visibility Wind Dir Wind Speed Gust Speed Precip Events Conditions
12:55 AM 30.4 °F 21.5 °F 19.0 °F 63% 30.16 in 10.0 mi West 10.4 mph - N/A   Overcast
1:55 AM 30.2 °F 20.8 °F 19.4 °F 64% 30.17 in 10.0 mi WSW 11.5 mph - N/A   Overcast
2:36 AM 30.2 °F 21.9 °F 19.4 °F 64% 30.16 in 10.0 mi West 9.2 mph - N/A   Overcast
2:55 AM 30.0 °F 21.1 °F 19.4 °F 65% 30.16 in 10.0 mi West 10.4 mph - N/A   Overcast
3:55 AM 30.0 °F 21.1 °F 20.1 °F 67% 30.17 in 10.0 mi West 10.4 mph - N/A   Overcast
4:55 AM 29.7 °F 19.6 °F 20.5 °F 69% 30.17 in 10.0 mi WSW 12.7 mph - N/A   Overcast
5:55 AM 29.5 °F 20.4 °F 20.7 °F 70% 30.17 in 10.0 mi WSW 10.4 mph - N/A   Overcast
6:55 AM 29.3 °F 19.6 °F 20.3 °F 69% 30.18 in 10.0 mi WSW 11.5 mph - N/A   Overcast
7:36 AM 30.2 °F 20.2 °F 21.2 °F 69% 30.19 in 10.0 mi WSW 12.7 mph - N/A   Overcast
7:55 AM 29.3 °F 19.6 °F 20.5 °F 70% 30.19 in 10.0 mi West 11.5 mph - N/A   Overcast
8:55 AM 29.3 °F 20.8 °F 20.5 °F 70% 30.20 in 10.0 mi West 9.2 mph - N/A   Overcast
9:17 AM 30.2 °F 21.9 °F 21.2 °F 69% 30.21 in 10.0 mi West 9.2 mph - N/A   Overcast
9:19 AM 30.2 °F 20.2 °F 21.2 °F 69% 30.21 in 10.0 mi West 12.7 mph - N/A   Overcast
9:27 AM 30.2 °F 20.8 °F 21.2 °F 69% 30.21 in 10.0 mi West 11.5 mph - N/A Snow Light Snow
9:55 AM 29.7 °F 21.3 °F 21.2 °F 71% 30.22 in 10.0 mi West 9.2 mph - 0.00 in   Overcast
10:08 AM 30.2 °F 20.2 °F 21.2 °F 69% 30.22 in 10.0 mi West 12.7 mph - N/A   Overcast
10:23 AM 30.2 °F 21.3 °F 21.2 °F 69% 30.19 in 10.0 mi West 10.4 mph - N/A   Overcast
10:55 AM 30.4 °F 22.2 °F 21.6 °F 70% 30.24 in 10.0 mi West 9.2 mph - N/A   Overcast
11:55 AM 30.6 °F 22.4 °F 21.7 °F 70% 30.23 in 10.0 mi WNW 9.2 mph - N/A   Overcast
12:37 PM 32.0 °F 23.0 °F 23.0 °F 69% 30.21 in 10.0 mi West 11.5 mph - N/A   Overcast
12:55 PM 31.3 °F 23.3 °F 21.9 °F 68% 30.21 in 10.0 mi WNW 9.2 mph - N/A   Overcast
1:55 PM 31.3 °F 23.3 °F 21.6 °F 67% 30.19 in 10.0 mi WNW 9.2 mph - N/A   Overcast
2:00 PM 32.0 °F 23.6 °F 21.2 °F 64% 30.15 in 10.0 mi WNW 10.4 mph - N/A   Overcast
2:55 PM 31.6 °F 23.7 °F 21.4 °F 66% 30.19 in 10.0 mi West 9.2 mph - N/A   Overcast
3:55 PM 31.5 °F 22.3 °F 21.2 °F 66% 30.19 in 10.0 mi West 11.5 mph - N/A   Overcast
4:55 PM 31.3 °F 23.9 °F 20.7 °F 65% 30.20 in 10.0 mi West 8.1 mph - N/A   Overcast
5:55 PM 30.9 °F 24.3 °F 19.4 °F 62% 30.20 in 10.0 mi West 6.9 mph - N/A   Overcast
6:55 PM 30.7 °F 23.3 °F 19.8 °F 64% 30.20 in 10.0 mi West 8.1 mph - N/A   Overcast
7:55 PM 30.6 °F 24.7 °F 19.6 °F 64% 30.18 in 10.0 mi West 5.8 mph - N/A   Overcast
8:55 PM 30.4 °F 26.9 °F 19.2 °F 63% 30.18 in 10.0 mi WSW 3.5 mph - N/A   Overcast
9:55 PM 29.8 °F 26.3 °F 19.4 °F 65% 30.16 in 10.0 mi SW 3.5 mph - N/A   Overcast
10:55 PM 30.2 °F 23.4 °F 20.3 °F 67% 30.15 in 10.0 mi SSW 6.9 mph - N/A   Overcast
11:47 PM 28.4 °F 21.2 °F 19.4 °F 69% 30.14 in 10.0 mi SSW 6.9 mph - N/A   Scattered Clouds
11:55 PM 27.5 °F 20.2 °F 18.7 °F 69% 30.14 in 10.0 mi SSW 6.9 mph - N/A   Scattered Clouds